User: anonymous   Login
Location: Castelbiague
(43.0361°N, 0.9246°E)
Time: 16:00:30
(UTC+00:00)
Language:

SPOT 5 - Orbit

View from above orbital plane
View from above orbital plane
View from above satellite
View from above satellite

Ground track
Ground track

The orbit data is extracted from the following two-line orbital elements,

1 27421U 02021A   21265.15867979  .00000080  00000-0  28956-4 0  9991
2 27421  98.2221 333.9150 0134083 225.0293 133.9973 14.52120369 11761
Epoch (UTC): 22 September 2021 03:48:29
Eccentricity: 0.0134083
inclination: 98.2221°
perigee height: 623 km
apogee height: 814 km
right ascension of ascending node: 333.9150°
argument of perigee: 225.0293°
revolutions per day: 14.52120369
mean anomaly at epoch: 133.9973°
orbit number at epoch: 1176

The dashed part of the orbit path shows where the satellite is in the earth's shadow,  

DLR